Regional Weather Roundup
Issued by NWS

Home | Current Version | Previous Version | Graphics & Text | Print | Product List | Glossary On
Versions: 1 2 3 4 5 6 7 8 9 10 11 12 13 14 15 16 17 18 19 20 21 22 23 24 25 26 27 28 29 30 31 32 33 34 35 36 37 38 39 40 41 42 43 44 45 46 47 48 49 50
000
ASUS43 KFSD 250402
RWRSD

WEATHER ROUNDUP FOR SOUTH DAKOTA
NATIONAL WEATHER SERVICE SIOUX FALLS SD
1100 PM CDT SAT JUN 24 2017

NOTE: "FAIR" INDICATES FEW OR NO CLOUDS BELOW 12,000 FEET WITH NO
SIGNIFICANT WEATHER AND/OR OBSTRUCTIONS TO VISIBILITY.


SDZ001>005-009-010-012>017-250500-
NORTHWEST AND NORTH CENTRAL SOUTH DAKOTA

CITY           SKY/WX    TMP DP  RH WIND       PRES   REMARKS
BUFFALO          N/A     54  31  41 NE12      30.27R
FAITH            N/A     54  35  48 NE10      30.31R
MOBRIDGE       CLEAR     50  39  66 N6        30.26R
$$

SDZ012>016-024>037-041>051-057-063-072>074-250500-
SOUTHWEST AND SOUTH CENTRAL SOUTH DAKOTA

CITY           SKY/WX    TMP DP  RH WIND       PRES   REMARKS
RAPID CTY ARPT CLEAR     56  30  37 N12       30.33R
PIERRE         PTCLDY    53  41  63 N7        30.27R
CUSTER         MOCLDY    54  27  35 NE6       30.39R
ELLSWORTH AFB  CLEAR     61  31  31 NE9       30.33R
PHILIP         PTCLDY    56  34  43 N9        30.29R
PINE RIDGE     PTCLDY    53  38  56 E6        30.32R
SPEARFISH      FAIR      52  36  54 S5        30.37R
WINNER         FAIR      56  37  49 NE6       30.28R
$$

SDZ004>011-016>023-039-040-250500-
NORTHEAST SOUTH DAKOTA

CITY           SKY/WX    TMP DP  RH WIND       PRES   REMARKS
ABERDEEN       CLOUDY    57  43  59 NW13      30.24R
WATERTOWN      CLOUDY    55  45  68 NW15      30.21R
BROOKINGS      CLOUDY    57  44  62 NW13      30.21R
SISSETON         N/A     56  44  64 N16       30.18R
$$

SDZ017-020-022-023-036>040-048>070-250500-
SOUTHEAST SOUTH DAKOTA

CITY           SKY/WX    TMP DP  RH WIND       PRES   REMARKS
SIOUX FALLS    PTCLDY    56  44  64 N10       30.21R
HURON          PTCLDY    52  45  77 N5        30.24R
CHAMBERLAIN    CLEAR     59  41  51 N7        30.27R
MITCHELL       CLEAR     56  43  61 N8        30.24R
YANKTON        CLEAR     56  41  57 N6        30.22R
$$

ABBREVIATIONS USED IN REMARKS
   TC - TEMPERATURE IN CELSIUS
  WCI - WIND CHILL INDEX
   HX - HEAT INDEX
  VSB - VISIBILITY





USA.gov is the U.S. government's official web portal to all federal, state and local government web resources and services.